sat.trackr.live / text

‹ back to catalog

STARLINK-1541

NORAD 46052 · 2020-055AB

PAYLOAD ACTIVE UNKNOWN

§ Identity

Operator
Country
US
Launch date
2020-08-07
Launch site
AFETR
Launch vehicle
Mass (kg)
RCS (m²)

Purposes: comms

External: N2YO · Heavens-Above · Gunter

§ Orbital elements

Epoch: 2026-07-24T17:08:27.436416Z

Period
87.57 min
Inclination
53.1359°
Eccentricity
0.0004616
Mean motion
16.44481002 rev/d
Perigee alt
150.9 km
Apogee alt
156.9 km
Semi-major
6,532.0 km
B*
3.7607e-4
RAAN
157.6174°
Arg perigee
266.0662°
Mean anomaly
93.9860°
Rev number
33,057

§ Raw data

STARLINK-15411 46052U 20055AB  26205.71420644  .11230242  12472-4  37607-3 0  99932 46052  53.1359 157.6174 0004616 266.0662  93.9860 16.44481002330574

JSON: /api/v1/satellites/46052 · /tle

For live sub-satellite position, see the globe view (requires WebGL).

§ Visibility from observer

Set your observer location to see the next 7 days of passes ≥ 10°. The values pass through the URL so the page stays shareable.

No JS? Fill the form by hand. The geolocation button needs JavaScript.